Jordan Valley, OR

6:24 PM MST on February 27, 2017 (GMT -0700)
Rome State

Weather History for KREO - May, 2013

Change the Weather History Date:

Sunday, May 5, 2013

  Actual Average Record
Temperature  
Mean Temperature 55 °F 51 °F  
Max Temperature 74 °F 67 °F 94 °F (1966)
Min Temperature 35 °F 35 °F 22 °F (1982)
Degree Days  
Heating Degree Days 10 14  
Month to date heating degree days 76 74  
Since 1 July heating degree days 6011 6168  
Cooling Degree Days 0 0  
Month to date cooling degree days 0 0  
Year to date cooling degree days 0 0  
Growing Degree Days 5 (Base 50)    
Moisture  
Dew Point 31 °F    
Average Humidity 44    
Maximum Humidity 70    
Minimum Humidity 17    
Precipitation  
Precipitation 0.00 in 0.03 in 0.88 in (2005)
Month to date precipitation 0.00 0.19  
Year to date precipitation 1.60 3.56  
Sea Level Pressure  
Sea Level Pressure 29.79 in    
Wind  
Wind Speed 11 mph (NE)    
Max Wind Speed 31 mph    
Max Gust Speed 41 mph    
T = Trace of Precipitation, MM = Missing Value Source: NWS Daily Summary

Daily Weather History Graph

Daily Weather History Graph

Search for Another Location

Airport or City:

Trip Planner

Search our weather history database for the weather conditions in past years. The results will help you decide how hot, cold, wet, or windy it might be!

Date:

Astronomy

May. 05, 2013 Rise Set
Actual Time 5:40 AM PDT 7:56 PM PDT
Civil Twilight 5:09 AM PDT 8:27 PM PDT
Nautical Twilight 4:30 AM PDT 9:06 PM PDT
Astronomical Twilight 3:48 AM PDT 9:49 PM PDT
Moon 3:19 AM PDT (5/5) 3:56 PM PDT (5/5)
Length of Visible Light 15h 18m
Length of Day
14h 15m
Waning Crescent, 17% of the Moon is Illuminated
May 5
Waning Crescent
May 9
New
May 17
First Quarter
May 24
Full
May 31
Last Quarter

Hourly Weather History & Observations

Time (PDT) Temp. Windchill Dew Point Humidity Pressure Visibility Wind Dir Wind Speed Gust Speed Precip Events Conditions
12:52 AM 43.0 °F 38.2 °F 28.0 °F 56% 29.88 in - ENE 8.1 mph - N/A   Unknown
1:52 AM 42.1 °F 38.4 °F 28.9 °F 60% 29.87 in - NE 5.8 mph - N/A   Unknown
2:52 AM 39.9 °F 36.7 °F 28.0 °F 63% 29.85 in - NNE 4.6 mph - N/A   Unknown
3:52 AM 39.0 °F 36.8 °F 28.9 °F 67% 29.85 in - East 3.5 mph - N/A   Unknown
4:52 AM 39.0 °F 34.0 °F 28.9 °F 67% 29.85 in - ESE 6.9 mph - N/A   Unknown
5:52 AM 37.9 °F - 28.9 °F 70% 29.85 in - Calm Calm - N/A   Unknown
6:52 AM 46.0 °F 41.0 °F 30.9 °F 56% 29.84 in - North 10.4 mph - N/A   Unknown
7:52 AM 52.0 °F - 32.0 °F 47% 29.84 in - NNE 8.1 mph - N/A   Unknown
8:52 AM 55.9 °F - 33.1 °F 42% 29.85 in - North 8.1 mph - N/A   Unknown
9:52 AM 61.0 °F - 34.0 °F 36% 29.82 in - NE 10.4 mph - N/A   Unknown
10:52 AM 66.9 °F - 33.1 °F 28% 29.80 in - ENE 12.7 mph 23.0 mph N/A   Unknown
11:52 AM 68.0 °F - 32.0 °F 26% 29.78 in - NNE 13.8 mph 21.9 mph N/A   Unknown
12:52 PM 70.0 °F - 30.0 °F 23% 29.76 in - North 9.2 mph 17.3 mph N/A   Unknown
1:52 PM 71.1 °F - 27.0 °F 19% 29.74 in - North 8.1 mph 18.4 mph N/A   Unknown
2:52 PM 73.0 °F - 27.0 °F 18% 29.72 in - North 11.5 mph 24.2 mph N/A   Unknown
3:52 PM 70.0 °F - 28.0 °F 21% 29.73 in - East 11.5 mph 26.5 mph N/A   Unknown
3:58 PM 71.6 °F - 28.4 °F 20% 29.77 in - North 12.7 mph 21.9 mph N/A   Unknown
4:52 PM 72.0 °F - 30.0 °F 21% 29.71 in - ENE 21.9 mph 28.8 mph N/A   Unknown
4:56 PM 71.6 °F - 30.2 °F 22% 29.76 in - ENE 24.2 mph 28.8 mph N/A   Unknown
5:52 PM 66.0 °F - 33.1 °F 29% 29.74 in - NNE 21.9 mph 33.4 mph N/A   Unknown
6:52 PM 66.0 °F - 33.1 °F 29% 29.73 in - NNE 16.1 mph 23.0 mph N/A   Unknown
7:52 PM 63.0 °F - 30.0 °F 29% 29.73 in - NNE 9.2 mph - N/A   Unknown
8:11 PM 62.6 °F - 35.6 °F 37% 29.81 in - ESE 25.3 mph 36.8 mph N/A   Unknown
8:52 PM 60.1 °F - 37.0 °F 42% 29.75 in - East 26.5 mph 38.0 mph N/A   Unknown
9:52 PM 64.0 °F - 28.9 °F 27% 29.73 in - East 16.1 mph - N/A   Unknown
10:52 PM 59.0 °F - 35.1 °F 41% 29.75 in - NE 8.1 mph - N/A   Unknown
11:52 PM 52.0 °F - 34.0 °F 50% 29.77 in - NE 5.8 mph - N/A   Unknown